This is the latest recevied weather packets stored in our database for station/object W6MAF. If no packets are shown the sender has not sent any weather packets the latest 10 day(s).
| Time | Temp. | Humidity | Pressure | Rain* | Wind** | Luminosity | Snow |
|---|---|---|---|---|---|---|---|
| 1788607953 | 13.89° C | 43% | - | 0 mm | 4.02 m/s, 212° | - | - |
| 1788607661 | 13.89° C | 43% | - | 0 mm | 4.47 m/s, 245° | - | - |
| 1788607358 | 13.89° C | 42% | - | 0 mm | 4.92 m/s, 228° | - | - |
| 1788607057 | 13.89° C | 42% | - | 0 mm | 3.13 m/s, 211° | - | - |
| 1788606759 | 13.89° C | 42% | - | 0 mm | 4.47 m/s, 245° | - | - |
| 1788606462 | 13.89° C | 42% | - | 0 mm | 4.02 m/s, 210° | - | - |
| 1788606164 | 13.89° C | 42% | - | 0 mm | 4.92 m/s, 221° | - | - |
| 1788605866 | 13.89° C | 42% | - | 0 mm | 4.92 m/s, 203° | - | - |
| 1788605569 | 13.89° C | 42% | - | 0 mm | 4.47 m/s, 217° | - | - |
| 1788604970 | 13.89° C | 42% | - | 0 mm | 3.58 m/s, 224° | - | - |
| 1788604672 | 13.89° C | 41% | - | 0 mm | 3.58 m/s, 232° | - | - |
| 1788604382 | 13.89° C | 41% | - | 0 mm | 4.92 m/s, 221° | - | - |
| 1788604077 | 13.89° C | 40% | - | 0 mm | 4.02 m/s, 211° | - | - |
| 1788603181 | 13.89° C | 39% | - | 0 mm | 4.47 m/s, 222° | - | - |
| 1788602883 | 14.44° C | 39% | - | 0 mm | 4.47 m/s, 205° | - | - |
| 1788602585 | 14.44° C | 39% | - | 0 mm | 5.36 m/s, 224° | - | - |
| 1788602288 | 14.44° C | 38% | - | 0 mm | 4.02 m/s, 210° | - | - |
| 1788601990 | 14.44° C | 38% | - | 0 mm | 5.81 m/s, 215° | - | - |
| 1788601689 | 14.44° C | 38% | - | 0 mm | 5.36 m/s, 201° | - | - |
| 1788601409 | 14.44° C | 37% | - | 0 mm | 4.92 m/s, 184° | - | - |
| 1788601094 | 14.44° C | 37% | - | 0 mm | 4.47 m/s, 214° | - | - |
| 1788600796 | 14.44° C | 36% | - | 0 mm | 4.92 m/s, 198° | - | - |
| 1788600498 | 14.44° C | 36% | - | 0 mm | 4.92 m/s, 210° | - | - |
| 1788600201 | 14.44° C | 35% | - | 0 mm | 5.36 m/s, 215° | - | - |
| 1788599900 | 14.44° C | 34% | - | 0 mm | 5.36 m/s, 179° | - | - |
* Rain latest hour (hover to see other rain measurements)
** Current wind speed in m/s (hover to see current wind gust speed)